ROMMA est une association bénévole à but non lucratif. Votre soutien est indispensable : ADHERER à ROMMA ou FAIRE un DON

Le Versoud - (38, Isère)

Vallée du Grésivaudan (220 m)   Longitude: 05° 51' 44" E   Latitude: 45° 13' 06" N Station partenaire n°6
 

Détail journalier du     <<     >>

Température Humidité Pression Vent Dir Rafale Dir. rafale Ensol.
Heure (°C) (%) (hPa) (km/h) (km/h) (min)
01:00 18.287101200---0
02:00 17.688101200---0
03:00 17.089101200---0
04:00 16.191101300---0
05:00 15.991101300---0
06:00 15.392101300---0
07:00 15.292101300---0
08:00 17.185101300---20
09:00 19.774101402NNE60
10:00 21.666101302NNE60
11:00 22.9631013010NO60
12:00 24.360101308OSO60
13:00 25.657101305O60
14:00 27.254101303ONO60
15:00 27.852101206ONO60
16:00 29.3471012013OSO50
17:00 29.44510121SSO15SSO40
18:00 28.44710123SO26SSE40
19:00 27.05210121S16S0
20:00 26.45310131---15N60
21:00 24.5521014013NNE45
22:00 23.159101505NNO0
23:00 22.463101600---0
minuit 21.766101600---0

Graphique du 30-07-2019

 

Serveur OMMA